カタログに戻る

STARLINK-30594

運用中通信VLEO
NORAD 58097·PAYLOAD·🇺🇸 United States

打ち上げ Oct 21, 2023 から Vandenberg Space Force Base

Loading…

次のパス (今後24時間)

TLE

最新Source: CelesTrak SupGP

元期: Sep 15, 2026, 02:14 UTC

1 58097C 23161A   26258.09354167  .00050241  00000+0  14843-2 0  2581
2 58097  53.1593   2.9371 0001113  94.4307 141.7718 15.34368210    15

AllMySatでSTARLINK-30594をリアルタイム追跡

Download on the App Store